TimePST,TemperatureF,Dew PointF,Humidity,Sea Level PressureIn,VisibilityMPH,Wind Direction,Wind SpeedMPH,Gust SpeedMPH,PrecipitationIn,Events,Conditions,WindDirDegrees,DateUTC
12:15 AM,26.6,19.4,74,30.56,10.0,SSE,6.9,-,N/A,,Clear,160,2013-12-09 08:15:00
12:35 AM,28.4,19.4,69,30.56,10.0,SSE,8.1,-,N/A,,Clear,160,2013-12-09 08:35:00
12:55 AM,26.6,19.4,74,30.56,10.0,SSE,4.6,-,N/A,,Clear,150,2013-12-09 08:55:00
1:15 AM,26.6,19.4,74,30.56,10.0,South,4.6,-,N/A,,Clear,170,2013-12-09 09:15:00
1:35 AM,26.6,19.4,74,30.57,10.0,SE,5.8,-,N/A,,Clear,130,2013-12-09 09:35:00
1:55 AM,24.8,19.4,80,30.57,10.0,SSE,5.8,-,N/A,,Clear,150,2013-12-09 09:55:00
2:15 AM,24.8,19.4,80,30.57,10.0,SSE,3.5,-,N/A,,Clear,160,2013-12-09 10:15:00
2:35 AM,26.6,19.4,74,30.57,10.0,South,3.5,-,N/A,,Clear,180,2013-12-09 10:35:00
2:55 AM,26.6,19.4,74,30.57,10.0,South,4.6,-,N/A,,Clear,170,2013-12-09 10:55:00
3:15 AM,24.8,19.4,80,30.56,10.0,SSE,6.9,-,N/A,,Clear,160,2013-12-09 11:15:00
3:35 AM,24.8,19.4,80,30.56,10.0,SSE,5.8,-,N/A,,Clear,160,2013-12-09 11:35:00
3:55 AM,24.8,21.2,86,30.56,10.0,SSE,6.9,-,N/A,,Clear,160,2013-12-09 11:55:00
4:15 AM,24.8,21.2,86,30.56,10.0,SE,3.5,-,N/A,,Clear,140,2013-12-09 12:15:00
4:35 AM,24.8,21.2,86,30.55,10.0,Calm,Calm,-,N/A,,Clear,0,2013-12-09 12:35:00
4:55 AM,26.6,21.2,80,30.55,10.0,SSE,3.5,-,N/A,,Clear,150,2013-12-09 12:55:00
5:15 AM,24.8,21.2,86,30.54,10.0,SSE,4.6,-,N/A,,Clear,160,2013-12-09 13:15:00
5:35 AM,24.8,21.2,86,30.54,10.0,SSE,5.8,-,N/A,,Clear,160,2013-12-09 13:35:00
5:55 AM,24.8,21.2,86,30.54,10.0,South,5.8,-,N/A,,Clear,170,2013-12-09 13:55:00
6:15 AM,24.8,21.2,86,30.54,10.0,SSE,4.6,-,N/A,,Clear,150,2013-12-09 14:15:00
6:35 AM,24.8,21.2,86,30.54,10.0,SSE,4.6,-,N/A,,Clear,160,2013-12-09 14:35:00
6:55 AM,23.0,21.2,93,30.54,10.0,South,5.8,-,N/A,,Clear,170,2013-12-09 14:55:00
7:15 AM,24.8,21.2,86,30.54,10.0,SSE,5.8,-,N/A,,Clear,160,2013-12-09 15:15:00
7:35 AM,24.8,21.2,86,30.54,10.0,SSE,3.5,-,N/A,,Clear,160,2013-12-09 15:35:00
7:55 AM,24.8,21.2,86,30.55,10.0,SSE,3.5,-,N/A,,Clear,150,2013-12-09 15:55:00
8:15 AM,26.6,23.0,86,30.55,10.0,SE,3.5,-,N/A,,Clear,140,2013-12-09 16:15:00
8:35 AM,26.6,24.8,93,30.55,10.0,Calm,Calm,-,N/A,,Clear,0,2013-12-09 16:35:00
8:55 AM,28.4,24.8,86,30.55,10.0,SSE,3.5,-,N/A,,Clear,150,2013-12-09 16:55:00
9:15 AM,30.2,24.8,80,30.56,10.0,SE,5.8,-,N/A,,Clear,140,2013-12-09 17:15:00
9:35 AM,30.2,24.8,80,30.56,10.0,SE,6.9,-,N/A,,Clear,130,2013-12-09 17:35:00
9:55 AM,32.0,24.8,75,30.56,10.0,SSE,5.8,-,N/A,,Clear,150,2013-12-09 17:55:00
10:15 AM,33.8,23.0,65,30.57,10.0,SSE,3.5,-,N/A,,Clear,150,2013-12-09 18:15:00
10:35 AM,33.8,23.0,65,30.57,10.0,South,3.5,-,N/A,,Clear,170,2013-12-09 18:35:00
10:55 AM,35.6,23.0,60,30.57,10.0,Calm,Calm,-,N/A,,Clear,0,2013-12-09 18:55:00
11:15 AM,37.4,23.0,56,30.55,10.0,NNE,3.5,-,N/A,,Clear,30,2013-12-09 19:15:00
11:35 AM,37.4,24.8,60,30.55,10.0,Calm,Calm,-,N/A,,Clear,0,2013-12-09 19:35:00
11:55 AM,39.2,24.8,56,30.54,10.0,Calm,Calm,-,N/A,,Clear,0,2013-12-09 19:55:00
12:15 PM,39.2,24.8,56,30.53,10.0,Calm,Calm,-,N/A,,Clear,0,2013-12-09 20:15:00
12:35 PM,39.2,26.6,61,30.53,10.0,Calm,Calm,-,N/A,,Clear,0,2013-12-09 20:35:00
12:55 PM,39.2,26.6,61,30.52,10.0,Calm,Calm,-,N/A,,Clear,0,2013-12-09 20:55:00
1:15 PM,42.8,24.8,49,30.52,10.0,Calm,Calm,-,N/A,,Clear,0,2013-12-09 21:15:00
1:35 PM,44.6,24.8,46,30.51,10.0,Calm,Calm,-,N/A,,Clear,0,2013-12-09 21:35:00
1:55 PM,42.8,26.6,53,30.51,10.0,Calm,Calm,-,N/A,,Clear,0,2013-12-09 21:55:00
2:15 PM,44.6,26.6,49,30.50,10.0,Calm,Calm,-,N/A,,Clear,0,2013-12-09 22:15:00
2:35 PM,44.6,26.6,49,30.50,10.0,NE,4.6,-,N/A,,Clear,40,2013-12-09 22:35:00
2:55 PM,44.6,26.6,49,30.50,10.0,NE,8.1,-,N/A,,Clear,40,2013-12-09 22:55:00
3:15 PM,42.8,26.6,53,30.51,10.0,NNE,10.4,-,N/A,,Clear,20,2013-12-09 23:15:00
3:35 PM,42.8,26.6,53,30.51,10.0,NNE,11.5,-,N/A,,Clear,30,2013-12-09 23:35:00
3:55 PM,42.8,24.8,49,30.51,10.0,NNE,15.0,-,N/A,,Clear,30,2013-12-09 23:55:00
4:15 PM,41.0,24.8,53,30.52,10.0,NE,9.2,-,N/A,,Clear,40,2013-12-10 00:15:00
4:35 PM,39.2,24.8,56,30.52,10.0,ENE,8.1,-,N/A,,Clear,70,2013-12-10 00:35:00
4:55 PM,39.2,23.0,52,30.52,10.0,ENE,5.8,-,N/A,,Clear,60,2013-12-10 00:55:00
5:15 PM,37.4,24.8,60,30.52,10.0,ESE,5.8,-,N/A,,Clear,110,2013-12-10 01:15:00
5:35 PM,37.4,24.8,60,30.51,10.0,ESE,8.1,-,N/A,,Clear,120,2013-12-10 01:35:00
5:55 PM,37.4,26.6,65,30.51,10.0,ESE,8.1,-,N/A,,Clear,110,2013-12-10 01:55:00
6:15 PM,35.6,28.4,75,30.52,10.0,Calm,Calm,-,N/A,,Clear,0,2013-12-10 02:15:00
6:35 PM,35.6,26.6,70,30.52,10.0,Calm,Calm,-,N/A,,Clear,0,2013-12-10 02:35:00
6:55 PM,35.6,26.6,70,30.52,10.0,Calm,Calm,-,N/A,,Clear,0,2013-12-10 02:55:00
7:15 PM,35.6,26.6,70,30.52,10.0,Calm,Calm,-,N/A,,Clear,0,2013-12-10 03:15:00
7:35 PM,33.8,28.4,81,30.52,10.0,SSE,3.5,-,N/A,,Clear,160,2013-12-10 03:35:00
7:55 PM,33.8,28.4,81,30.52,10.0,Calm,Calm,-,N/A,,Clear,0,2013-12-10 03:55:00
8:15 PM,33.8,30.2,87,30.52,10.0,Calm,Calm,-,N/A,,Clear,0,2013-12-10 04:15:00
8:35 PM,33.8,30.2,87,30.52,10.0,NNE,3.5,-,N/A,,Clear,30,2013-12-10 04:35:00
8:55 PM,32.0,30.2,93,30.53,10.0,NNE,8.1,-,N/A,,Clear,30,2013-12-10 04:55:00
9:15 PM,32.0,30.2,93,30.52,10.0,Calm,Calm,-,N/A,,Clear,0,2013-12-10 05:15:00
9:35 PM,30.2,28.4,93,30.53,10.0,SE,5.8,-,N/A,,Clear,140,2013-12-10 05:35:00
9:55 PM,30.2,28.4,93,30.53,10.0,SSE,3.5,-,N/A,,Clear,150,2013-12-10 05:55:00
10:15 PM,30.2,28.4,93,30.52,10.0,Calm,Calm,-,N/A,,Clear,0,2013-12-10 06:15:00
10:35 PM,30.2,28.4,93,30.53,10.0,SE,3.5,-,N/A,,Clear,140,2013-12-10 06:35:00
10:55 PM,30.2,28.4,93,30.52,10.0,SSE,4.6,-,N/A,,Clear,150,2013-12-10 06:55:00
11:15 PM,28.4,26.6,93,30.52,10.0,Calm,Calm,-,N/A,,Clear,0,2013-12-10 07:15:00
11:35 PM,28.4,26.6,93,30.52,10.0,SSE,3.5,-,N/A,,Clear,150,2013-12-10 07:35:00
11:55 PM,28.4,28.4,100,30.52,10.0,Calm,Calm,-,N/A,,Clear,0,2013-12-10 07:55:00